Simultaneous Nadir Overpasses (SNOs) Predictions

Prediction of SNOs between GOES-17 and METOP-C Satellite Orbit:

Table of predicted SNOs for the next 14.0 days since TLE Epoch: 5/25/2024
Index Date Time (GOES-17) GOES-17 Lat,Lon METOP-C Lat,Lon Distance(km) Time Diff (sec)
1 05/25/2024 04:41:26 0.03,-104.70 0.00,-107.55 316.65 80
2 05/26/2024 04:17:57 0.04,-104.70 0.53,-102.43 258.91 80
3 05/27/2024 16:36:49 -0.04,-104.71 0.50,-106.98 259.47 80
4 05/28/2024 16:18:51 -0.05,-104.71 -0.63,-101.99 309.33 80
5 05/30/2024 04:37:53 0.05,-104.70 -0.37,-106.60 216.42 80
6 05/31/2024 04:14:35 0.06,-104.70 0.76,-101.61 352.51 80
7 06/01/2024 16:33:27 -0.06,-104.71 0.24,-106.17 165.19 80
8 06/02/2024 16:15:28 -0.06,-104.71 -0.84,-101.17 404.05 80
9 06/04/2024 04:34:29 0.05,-104.70 -0.21,-105.76 121.24 80
10 06/05/2024 04:11:10 0.06,-104.70 0.93,-100.77 447.72 80
11 06/06/2024 16:32:42 -0.06,-104.71 0.10,-105.32 70.23 80
12 06/07/2024 16:09:23 -0.06,-104.71 -1.04,-100.33 498.76 80
